• In Belarus
  • List of Countries
  • For 7 days
  • Water Temperature
  • Weather Map
  • Weather Widgets
  • user-avatar
    Login

    Hourly Weather Akzhar (Alakolskiy rayon)

    Today, 29 January, Wednesday

    Time Temperature Precipitation Wind Pressure Humidity
    00:00 -7°C° 0 mm 3 mps 708 mmHg 79%
    01:00 -7°C° 0 mm 3 mps 708 mmHg 79%
    02:00 -7°C° 0 mm 3 mps 709 mmHg 79%
    03:00 -7°C° 0.1 mm 3 mps 709 mmHg 82%
    04:00 -7°C° 0.1 mm 3 mps 709 mmHg 86%
    05:00 -7°C° 0.1 mm 2 mps 709 mmHg 90%
    06:00 -7°C° 0.2 mm 2 mps 710 mmHg 91%
    07:00 -7°C° 0.2 mm 2 mps 710 mmHg 92%
    08:00 -7°C° 0.2 mm 2 mps 711 mmHg 93%
    09:00 -7°C° 0.1 mm 2 mps 711 mmHg 92%
    10:00 -6°C° 0.1 mm 2 mps 711 mmHg 91%
    11:00 -6°C° 0.1 mm 2 mps 711 mmHg 89%
    12:00 -4°C° 0 mm 1 mps 711 mmHg 89%
    13:00 -4°C° 0 mm 1 mps 710 mmHg 90%
    14:00 -5°C° 0 mm 0 mps 710 mmHg 90%
    15:00 -6°C° 0 mm 1 mps 710 mmHg 90%
    16:00 -8°C° 0 mm 1 mps 710 mmHg 90%
    17:00 -10°C° 0 mm 1 mps 710 mmHg 90%
    18:00 -10°C° 0 mm 1 mps 710 mmHg 87%
    19:00 -10°C° 0 mm 1 mps 710 mmHg 83%
    20:00 -10°C° 0 mm 1 mps 710 mmHg 79%
    21:00 -10°C° 0 mm 1 mps 710 mmHg 77%
    22:00 -10°C° 0 mm 1 mps 710 mmHg 76%
    23:00 -10°C° 0 mm 1 mps 710 mmHg 74%

    Tomorrow, 30 January, Thursday

    Time Temperature Precipitation Wind Pressure Humidity
    00:00 -10°C° 0 mm 1 mps 710 mmHg 74%
    01:00 -10°C° 0 mm 1 mps 710 mmHg 75%
    02:00 -10°C° 0 mm 1 mps 709 mmHg 75%
    03:00 -9°C° 0 mm 1 mps 709 mmHg 75%
    04:00 -9°C° 0 mm 1 mps 709 mmHg 74%
    05:00 -9°C° 0 mm 1 mps 709 mmHg 73%
    06:00 -9°C° 0 mm 1 mps 709 mmHg 74%
    07:00 -9°C° 0 mm 1 mps 709 mmHg 74%
    08:00 -9°C° 0 mm 1 mps 709 mmHg 74%
    09:00 -8°C° 0 mm 1 mps 709 mmHg 76%
    10:00 -7°C° 0 mm 1 mps 709 mmHg 78%
    11:00 -6°C° 0 mm 1 mps 709 mmHg 80%
    12:00 -6°C° 0 mm 1 mps 708 mmHg 82%
    13:00 -6°C° 0 mm 1 mps 708 mmHg 84%
    14:00 -4°C° 0 mm 1 mps 708 mmHg 85%
    15:00 -7°C° 0 mm 1 mps 708 mmHg 86%
    16:00 -8°C° 0 mm 0 mps 707 mmHg 87%
    17:00 -9°C° 0 mm 0 mps 707 mmHg 87%
    18:00 -9°C° 0 mm 0 mps 707 mmHg 85%
    19:00 -9°C° 0 mm 0 mps 708 mmHg 82%
    20:00 -8°C° 0 mm 0 mps 708 mmHg 80%
    21:00 -8°C° 0 mm 0 mps 708 mmHg 79%
    22:00 -8°C° 0 mm 0 mps 708 mmHg 77%
    23:00 -8°C° 0 mm 0 mps 707 mmHg 76%

    Day after tomorrow, 31 January, Friday

    Time Temperature Precipitation Wind Pressure Humidity
    00:00 -9°C° 0 mm 0 mps 707 mmHg 76%
    01:00 -9°C° 0 mm 0 mps 707 mmHg 76%
    02:00 -10°C° 0 mm 0 mps 707 mmHg 76%
    03:00 -10°C° 0 mm 0 mps 707 mmHg 74%
    04:00 -10°C° 0 mm 1 mps 707 mmHg 72%
    05:00 -10°C° 0 mm 1 mps 707 mmHg 69%
    06:00 -10°C° 0 mm 1 mps 707 mmHg 68%
    07:00 -9°C° 0 mm 1 mps 707 mmHg 66%
    08:00 -9°C° 0 mm 1 mps 707 mmHg 64%
    09:00 -7°C° 0 mm 1 mps 707 mmHg 68%
    10:00 -6°C° 0 mm 1 mps 707 mmHg 72%
    11:00 -3°C° 0 mm 1 mps 707 mmHg 76%
    12:00 -3°C° 0 mm 1 mps 707 mmHg 79%
    13:00 -3°C° 0 mm 1 mps 707 mmHg 81%
    14:00 -3°C° 0 mm 1 mps 706 mmHg 83%
    15:00 -4°C° 0 mm 1 mps 706 mmHg 79%
    16:00 -6°C° 0 mm 1 mps 706 mmHg 75%
    17:00 -8°C° 0 mm 2 mps 706 mmHg 71%
    18:00 -8°C° 0 mm 2 mps 706 mmHg 68%
    19:00 -8°C° 0 mm 2 mps 706 mmHg 64%
    20:00 -8°C° 0 mm 2 mps 706 mmHg 61%
    21:00 -8°C° 0 mm 2 mps 706 mmHg 59%
    22:00 -7°C° 0 mm 2 mps 706 mmHg 57%
    23:00 -7°C° 0 mm 2 mps 706 mmHg 55%

    1 February, Saturday

    Time Temperature Precipitation Wind Pressure Humidity
    00:00 -7°C° 0 mm 2 mps 706 mmHg 54%
    01:00 -7°C° 0 mm 2 mps 706 mmHg 53%
    02:00 -7°C° 0 mm 2 mps 706 mmHg 51%
    03:00 -7°C° 0 mm 2 mps 706 mmHg 50%
    04:00 -7°C° 0 mm 2 mps 705 mmHg 49%
    05:00 -7°C° 0 mm 2 mps 705 mmHg 48%
    06:00 -7°C° 0 mm 2 mps 705 mmHg 48%
    07:00 -7°C° 0 mm 2 mps 706 mmHg 49%
    08:00 -6°C° 0 mm 2 mps 706 mmHg 49%
    09:00 -5°C° 0 mm 2 mps 706 mmHg 56%
    10:00 -1°C° 0 mm 1 mps 705 mmHg 63%
    11:00 0°C° 0 mm 1 mps 705 mmHg 70%
    12:00 0°C° 0 mm 1 mps 705 mmHg 71%
    13:00 -1°C° 0 mm 0 mps 705 mmHg 73%
    14:00 -2°C° 0 mm 0 mps 704 mmHg 74%
    15:00 -3°C° 0 mm 0 mps 704 mmHg 69%
    16:00 -3°C° 0 mm 1 mps 704 mmHg 64%
    17:00 -6°C° 0 mm 1 mps 704 mmHg 59%
    18:00 -6°C° 0 mm 1 mps 704 mmHg 57%
    19:00 -4°C° 0 mm 1 mps 704 mmHg 55%
    20:00 -4°C° 0 mm 1 mps 704 mmHg 53%
    21:00 -4°C° 0 mm 1 mps 704 mmHg 52%
    22:00 -4°C° 0 mm 1 mps 704 mmHg 51%
    23:00 -4°C° 0 mm 1 mps 704 mmHg 51%

    2 February, Sunday

    Time Temperature Precipitation Wind Pressure Humidity
    00:00 -4°C° 0 mm 1 mps 704 mmHg 50%
    01:00 -4°C° 0 mm 1 mps 703 mmHg 49%
    02:00 -4°C° 0 mm 1 mps 703 mmHg 49%
    03:00 -4°C° 0 mm 1 mps 703 mmHg 48%
    04:00 -4°C° 0 mm 1 mps 703 mmHg 47%
    05:00 -4°C° 0 mm 1 mps 703 mmHg 46%
    06:00 -3°C° 0 mm 1 mps 703 mmHg 46%
    07:00 -3°C° 0 mm 1 mps 704 mmHg 46%
    08:00 -2°C° 0 mm 1 mps 704 mmHg 46%
    09:00 -1°C° 0 mm 1 mps 704 mmHg 53%
    10:00 +1°C° 0 mm 1 mps 704 mmHg 61%
    11:00 +1°C° 0 mm 0 mps 704 mmHg 68%
    12:00 +2°C° 0 mm 1 mps 704 mmHg 69%
    13:00 +2°C° 0 mm 1 mps 704 mmHg 69%
    14:00 +3°C° 0 mm 1 mps 703 mmHg 69%
    15:00 +2°C° 0 mm 1 mps 703 mmHg 64%
    16:00 +1°C° 0 mm 1 mps 703 mmHg 59%
    17:00 0°C° 0 mm 1 mps 703 mmHg 53%
    18:00 0°C° 0 mm 1 mps 704 mmHg 52%
    19:00 0°C° 0 mm 1 mps 704 mmHg 51%
    20:00 0°C° 0 mm 1 mps 704 mmHg 51%
    21:00 0°C° 0 mm 1 mps 704 mmHg 51%
    22:00 +1°C° 0 mm 1 mps 704 mmHg 51%
    23:00 +1°C° 0 mm 1 mps 704 mmHg 51%

    3 February, Monday

    Time Temperature Precipitation Wind Pressure Humidity
    00:00 0°C° 0 mm 1 mps 703 mmHg 50%
    01:00 -2°C° 0 mm 2 mps 703 mmHg 50%
    02:00 -2°C° 0 mm 2 mps 703 mmHg 49%
    03:00 -2°C° 0 mm 2 mps 703 mmHg 49%
    04:00 -2°C° 0 mm 2 mps 702 mmHg 48%
    05:00 -2°C° 0 mm 2 mps 702 mmHg 48%
    06:00 -2°C° 0 mm 2 mps 702 mmHg 50%
    07:00 -1°C° 0 mm 2 mps 702 mmHg 51%
    08:00 -1°C° 0 mm 2 mps 702 mmHg 53%
    09:00 +2°C° 0 mm 1 mps 702 mmHg 61%
    10:00 +3°C° 0 mm 1 mps 702 mmHg 69%
    11:00 +3°C° 0 mm 0 mps 702 mmHg 77%
    12:00 +3°C° 0 mm 0 mps 701 mmHg 75%
    13:00 +3°C° 0 mm 0 mps 701 mmHg 74%
    14:00 +3°C° 0 mm 0 mps 701 mmHg 72%
    15:00 +2°C° 0 mm 0 mps 701 mmHg 68%
    16:00 +1°C° 0 mm 1 mps 701 mmHg 64%
    17:00 -1°C° 0 mm 1 mps 701 mmHg 60%
    18:00 -1°C° 0 mm 1 mps 701 mmHg 59%
    19:00 0°C° 0 mm 1 mps 701 mmHg 58%
    20:00 -2°C° 0 mm 2 mps 701 mmHg 57%
    21:00 -3°C° 0 mm 2 mps 702 mmHg 59%
    22:00 -4°C° 0 mm 2 mps 702 mmHg 61%
    23:00 -4°C° 0 mm 2 mps 702 mmHg 63%
    Show more